Forecast Directory
U.S. Alerts
El Dorado Weather Logo
U.S. Radar Loop Conditions Map

U.S. Color Satellite North America Color Infrared Animated Satellite Loop

Interactive Wx Map Live U.S. Google Map Radar Thumbnail Image

US Precipitation 1 day, 24 hour precipitation map

US Temperatures US Conditions Map

US Climate Data US Conditions Map


NOAA NWS Hourly Roundups by Site
Regional Weather Roundup for Sacramento, CA
Select Site:  

000
ASUS46 KSTO 190315
RWRCA

NORTHERN AND CENTRAL CA REGIONAL WEATHER ROUNDUP
NATIONAL WEATHER SERVICE SACRAMENTO CA
800 PM PDT FRI SEP 18 2020

NOTE: FAIR INDICATES FEW OR NO CLOUDS BELOW 12,000 FEET WITH NO
SIGNIFICANT WEATHER AND/OR OBSTRUCTIONS TO VISIBILITY.

CAZ001-003-190400-
NORTHWEST AREA

CITY           SKY/WX    TMP DP  RH WIND       PRES   REMARKS
CRESCENT CITY  CLOUDY    64  59  83 S14       30.00R
UKIAH          PTCLDY    68  56  65 N10       29.98R
$$

CAZ006-505>513-190400-
BAY AREA

CITY           SKY/WX    TMP DP  RH WIND       PRES   REMARKS
SANTA ROSA     CLEAR     66  59  78 SW6       29.96R
SAN RAFAEL     N/A       MM  MM  MM MISG
NAPA           CLEAR     67  60  78 W8        29.96R
CONCORD        CLEAR     69  59  70 W7        29.96R
OAKLAND CITY   N/A       68  MM  MM MISG
OAKLAND        MOCLDY    68  61  78 W16       29.98S
SAN FRAN CITY  N/A       63  MM  91 MISG
SAN FRAN ARPT  MOCLDY    65  60  84 NW6       29.97S
LIVERMORE      CLEAR     65  58  78 W12       29.97R
HAYWARD        MOCLDY    68  60  75 W13       29.98R
SAN JOSE ARPT  PTCLDY    67  59  75 N14       29.98R
$$
CAZ034-037-514>518-190400-
CENTRAL COAST

CITY           SKY/WX    TMP DP  RH WIND       PRES   REMARKS
WATSONVILLE    CLEAR     63  58  83 SE6       29.97R
SALINAS        CLEAR     67  58  72 W7        29.97S
MONTEREY       CLEAR    N/A N/A N/A SW7       29.99R
SANTA MARIA    CLEAR     62  56  80 NW13      29.95R
HALF MOON BAY  CLOUDY    63  59  88 S5        29.99F
$$
CAZ015-016-190400-
NORTHERN SACRAMENTO VALLEY

CITY           SKY/WX    TMP DP  RH WIND       PRES   REMARKS
REDDING        PTCLDY    74  52  46 S5        29.89R
RED BLUFF      MOCLDY    76  54  46 SE3       29.90R
OROVILLE       CLEAR     76  50  40 SE7       29.90S
$$
CAZ016>018-190400-
SOUTHERN SACRAMENTO VALLEY

CITY           SKY/WX    TMP DP  RH WIND       PRES   REMARKS
AUBURN         CLEAR     70  48  46 S3        29.97R
BEALE AFB      CLEAR     72  51  46 S9        29.88R
LINCOLN        FAIR      72  54  53 CALM      29.90R
MARYSVILLE     CLEAR     76  54  46 S9        29.89R
SAC INTL ARPT  CLEAR     73  57  57 S13       29.89R
MATHER AIRPORT CLEAR     72  55  56 S6        29.90R
DOWNTOWN SAC   N/A       72  MM  MM MISG
SAC EXEC ARPT  CLEAR     71  58  63 MISG      29.91R
VACAVILLE      CLEAR     71  56  58 S5        29.92R
TRAVIS AFB     CLEAR     67  58  72 SW14      29.92R
$$
CAZ019>021-190400-
SAN JOAQUIN VALLEY

CITY           SKY/WX    TMP DP  RH WIND       PRES   REMARKS
STOCKTON       CLEAR     74  57  55 W12       29.93R
MODESTO        CLEAR     74  53  48 NW15      29.92R
MERCED         CLEAR     75  52  44 NW9       29.90R
LEMOORE        PTCLDY    76  54  46 NW9       29.89R
FRESNO         PTCLDY    79  54  41 NW10      29.89R
HANFORD        CLEAR     79  58  48 NW9       29.89R
PORTERVILLE    CLEAR     77  59  53 CALM      29.89R
$$
CAZ011-012-071-190400-
NORTHERN MOUNTAINS

CITY           SKY/WX    TMP DP  RH WIND       PRES   REMARKS
YREKA          MOCLDY    67  46  47 NW13      29.98R
MOUNT SHASTA   CLOUDY    58  46  64 E3        30.01R HAZE
ALTURAS        PTCLDY    60  39  45 W13       30.02R
$$
CAZ011-012-071-190400-
SIERRA NEVADA MTNS

CITY           SKY/WX    TMP DP  RH WIND       PRES   REMARKS
BLUE CANYON    CLEAR     54  44  69 S6        30.12R
TRUCKEE        CLEAR     55  37  50 SW8       30.11R
TAHOE VLY ARPT CLEAR     56  38  50 S12G22    30.11R
MAMMOTH LAKES  MOCLDY    55  37  50 NW9       30.18R HAZE
$$


 

View Past Reports for Sacramento, CA.

Products Courtesy of NOAA-NWS
NWS Information Parsing Script by Ken True at Saratoga Weather - Script by SE Lincoln Weather.



Contact Us | Mobile
Never base any life decisions on weather information from this site or anywhere over the Internet.
Site is dedicated to our Lord & Savior Jesus Christ | Random Quotes of Jesus

Copyright © 2020 El Dorado Weather, Inc. | Site Designed By:  El Dorado Weather